www.pogodaiklimat.ru

Погода и климат >> Архив погоды >> Россия >> Амурская область >> Архара


АРХИВ ПОГОДЫ в Архаре

Время (UTC), дата Ветер
(напр.,м/с)
 
Видим.   Явления Облачность Т
(С)
Тd
(С)
f
(%)
Тe
(С)
Тes
(С)
Комфортность P
(гПа)
Po
(гПа)
Тmin
(С)
Tmax
(С)
R
(мм)
R24
(мм)
S
(см)
09 18.06 З 1 50 км 3/0
[Ci fib]
+23.4 +8.8 39 +25 +28 комфорт 1001.8 986.3
12 18.06 ЮВ 1 50 км 8/8 1000 м
[Cb cap]
+16.6 +12.1 75 +17 +17 1001.0 985.3 +23.8
15 18.06 ЮВ 1 20 км {гроза, ливн. осадки} 10/10 1000 м
[Cb cap]
+14.8 +12.1 84 +15 +15 1000.0 984.2
18 18.06 ЮВ 1 20 км {гроза, ливн. осадки} 10/10 1000 м
[Cb cap]
+13.3 +11.5 89 +13 +13 997.9 982.0
21 18.06 ЮВ 2 50 км слаб. ливневой дождь 10/5 1000 м
[Cb cap Ac trans Ci fib]
+13.5 +11.8 89 +13 +13 997.1 981.3
00 19.06 СЗ 1 10 км слаб. ливневой дождь 10/10 600 м
[Cb cap]
+12.5 +11.0 91 +12 +12 999.0 983.0 +12.1 2
03 19.06 СЗ 3 50 км {ливн. осадки} 8/8 1000 м
[Cu med, cong]
+16.1 +8.1 59 +16 +19 1000.3 984.5
06 19.06 СЗ 4-11
{11}
50 км {ливн. осадки} 8/6 1000 м
[Cb cap Ac trans Ci fib]
+15.9 +6.7 54 +15 +18 1000.8 985.0
09 19.06 СЗ 1
{11}
4000 м слаб. ливневой дождь 10/10 600 м
[Cb cap]
+10.8 +8.2 84 +10 +10 1001.7 985.6
12 19.06 СЗ 1 20 км {ливн. осадки} 10/10 600 м
[Cb cap]
+9.0 +7.1 88 +8 +8 1002.8 986.6 +17.3 0.0
15 19.06 ЮЗ 1 20 км 10/10 1000 м
[Cb cap]
+8.0 +6.5 90 +7 +7 1003.6 987.3
18 19.06 С 1 20 км в посл. час ливневой дождь 10/10 600 м
[Cb cap]
+6.3 +5.1 92 +5 +5 1003.9 987.5
21 19.06 С 1 4000 м слаб. ливневой дождь 10/10 600 м
[Cb cap]
+7.5 +6.4 93 +6 +6 1005.4 989.1
00 20.06 СВ 2 50 км {ливн. осадки} 10/4 1000 м
[Cb cap Ac trans Ci fib]
+14.9 +11.1 78 +15 +18 1005.8 989.9 +4.3 0.3
03 20.06 С 2 50 км 10/8 600 м
[Cb cap Ac und]
+16.2 +11.8 75 +16 +17 1006.8 990.9
06 20.06 З 2 50 км 10/6 600 м
[Cb cap Ac trans Ci fib]
+19.0 +14.1 73 +21 +23 комфорт 1007.1 991.3
09 20.06 Ю 2 50 км 8/3 1000 м
[Cb cap Ac trans]
+17.7 +14.3 80 +18 +19 1007.6 991.8
12 20.06 штиль 0 50 км 10/4 1000 м
[Cb cap Ac trans Ci fib]
+14.3 +12.7 90 +14 +14 1009.2 993.2 +20.0
15 20.06 СВ 1 50 км 6/0
[Ci fib]
+10.2 +9.0 92 +10 +10 1010.1 993.8
18 20.06 В 1 50 км ясно +8.9 +7.9 93 +8 +8 1010.3 994.0
21 20.06 ЮВ 1 500 м туман ясно +11.6 +10.4 92 +11 +13 1011.4 995.2
00 21.06 З 1 500 м туман ясно +14.9 +13.9 94 +15 +28 опасность
простуды
1011.6 995.6 +7.9 0.1
03 21.06 З 3 50 км {туман} 3/3 1000 м
[Cu hum]
+23.9 +14.3 55 +26 +37 жарко 1009.5 994.0
06 21.06 СЗ 2 50 км {туман} 10/3 1000 м
[Cb cap Ac trans Ci fib]
+23.6 +15.6 61 +27 +31 жарко 1008.6 993.1
09 21.06 штиль 0 50 км 10/0
[Ac trans Ci fib]
+20.7 +14.5 68 +23 +25 комфорт 1009.0 993.3
12 21.06 В 1 50 км 10/0
[Ac und]
+17.6 +13.1 75 +19 +19 1010.1 994.2 +25.3
15 21.06 С 1 50 км ясно +12.8 +11.0 89 +13 +13 1010.7 994.6
18 21.06 штиль 0 50 км ясно +11.6 +10.3 92 +11 +11 1011.1 994.9
21 21.06 штиль 0 50 км ясно +13.2 +12.0 92 +13 +15 1011.6 995.4
00 22.06 ЮВ 1 50 км 3/0
[Ci fib]
+21.0 +15.5 71 +25 +37 комфорт 1011.5 995.8 +9.5
03 22.06 ЮЗ 2 50 км 4/4 1000 м
[Cu med, cong]
+24.8 +15.4 56 +28 +38 жарко 1010.6 995.1
06 22.06 СЗ 1 50 км 8/8 1000 м
[Cb cap]
+27.1 +15.7 50 +30 +33 душно 1009.0 993.7
09 22.06 СЗ 2 50 км 4/0
[Ci fib]
+26.7 +13.6 44 +29 +31 жарко 1008.3 993.0
12 22.06 С 1 50 км 3/0
[Ci fib]
+17.7 +15.0 84 +19 +19 1009.7 993.8 +27.3
15 22.06 штиль 0 50 км ясно +13.1 +11.7 91 +13 +13 1009.9 993.8
18 22.06 СВ 1 50 км ясно +11.2 +10.1 93 +11 +11 1009.7 993.5
21 22.06 штиль 0 20 км 3/0
[Ci fib]
+13.9 +12.7 92 +13 +15 1010.1 994.1
00 23.06 ЮВ 1 50 км 6/0
[Ci fib]
+20.1 +15.5 75 +24 +35 комфорт 1009.7 994.0 +10.0
03 23.06 ЮЗ 1 50 км 8/3 1000 м
[Cu med, cong Ci fib]
+26.2 +14.9 50 +29 +42 жарко 1008.6 993.3
06 23.06 СЗ 1 50 км 10/0
[Ci fib]
+28.1 +12.8 39 +30 +42 жарко 1007.0 991.7
09 23.06 Ю 1 50 км 10/0
[Ci fib]
+28.2 +15.2 45 +31 +33 душно 1006.3 991.1
12 23.06 ЮВ 1 50 км 10/5 1000 м
[Cb cap Ac trans Ci fib]
+22.2 +16.9 72 +27 +27 душно 1007.0 991.5 +28.8
15 23.06 ЮВ 2 50 км 10/6 1000 м
[Cb cap Ac und]
+21.6 +16.5 73 +25 +25 комфорт 1007.0 991.5
18 23.06 ЮВ 2 50 км 10/4 1000 м
[Cb cap Ac und]
+19.8 +16.0 79 +23 +23 комфорт 1007.0 991.3
21 23.06 ЮВ 1 50 км 10/0
[Ac trans Ci fib]
+20.0 +16.2 79 +24 +24 комфорт 1007.7 992.0
00 24.06 ЮВ 2 20 км 10/4 1000 м
[Cb cap Ac trans Ci fib]
+23.3 +17.6 70 +29 +32 душно 1007.3 991.8 +18.4
03 24.06 Ю 3 20 км 10/3 1000 м
[Cb cap Ac trans Ci fib]
+26.6 +17.3 57 +31 +36 душно 1006.2 990.9
06 24.06 Ю 3 20 км {ливн. осадки} 10/0
[Ac trans Ci fib]
+27.0 +18.4 59 +32 +38 очень
душно
1004.3 989.1
09 24.06 Ю 1 20 км 10/4 1000 м
[Cb cap Ac trans Ci fib]
+25.5 +18.6 66 +30 +31 душно 1003.8 988.5
12 24.06 ЮВ 2 20 км 10/5 1000 м
[Cb cap Ac trans Ci fib]
+23.0 +16.9 69 +28 +28 душно 1003.6 988.2 +27.9 0.0
15 24.06 Ю 1 4000 м слаб. ливневой дождь 10/10 600 м
[Cb cap]
+20.8 +17.7 82 +26 +26 душно 1004.1 988.5
18 24.06 Ю 1 4000 м гроза, ливневой дождь 10/10 600 м
[Cb cap]
+17.7 +15.9 89 +19 +19 1005.0 989.2
21 24.06 СЗ 2 10 км гроза без осадков {ливн. осадки} 10/8 600 м
[Cb cap Ac und]
+17.4 +16.2 93 +18 +18 1006.8 991.0
00 25.06 С 3 20 км в посл. час ливневой дождь {гроза} 10/8 600 м
[Cb cap Ac und]
+15.6 +14.2 91 +15 +15 1007.2 991.3 +15.6 6
03 25.06 С 2 50 км {ливн. осадки} 10/5 1000 м
[Sc Ac und]
+17.9 +14.4 80 +18 +21 1007.8 992.0 +15.5
06 25.06 З 2 50 км {ливн. осадки} 10/0
[Ac trans Ci fib]
+22.0 +16.3 70 +26 +33 душно 1006.3 990.8

 

Местоположение метеостанции Архара (Амурская область, Россия): широта 49.42 долгота 130.00 высота над уровнем моря 135 м.

В архиве по умолчанию представлена погода в Архаре за последнюю неделю. Архивные данные за месяц целиком и за предыдущие месяцы, начиная с января 2011 года, Вы можете получить, выбрав интересующий диапазон дат из раскрывающегося списка и нажав кнопку "Ввод!".


*Определитесь, кто Вы:
робот инопланетянин человек

Внимание! Время в таблицах - всемирное. Для получения местного времени необходимо прибавить поправку, которая равна 9 ч.

Смотрите также архив погоды в соседних городах и на ближайших метеорологических станциях:

Погода в Малиновке (Амурская область, Россия) (41 км)
Погода в Облучье (Еврейская автономная область, Россия) (86 км)
Погода в Завитае (Амурская область, Россия) (89 км)
Погода в Поярково (Амурская область, Россия) (104 км)
Погода в Екатеринославке (Амурская область, Россия) (128 км)
Погода в Сектагли (Хабаровский край, Россия) (133 км)
Погода в Константиновке (Амурская область, Россия) (153 км)
Погода в Братолюбовке (Амурская область, Россия) (159 км)
Погода в Сутуре (Хабаровский край, Россия) (167 км)
Погода в Суньу (Хэйлунцзян, Китай) (192 км)

Пояснения к столбцам:

Ветер - указаны скорость ветра в м/с - средняя за 10 мин, порывы в срок и между сроками (в фигурных скобках) и направление, откуда дует ветер: С - северный, СВ - северо-восточный, В - восточный, ЮВ - юго-восточный, Ю - южный, ЮЗ - юго-западный, З - западный, СЗ - северо-западный.
Видимость - горизонтальная дальность видимости в метрах или километрах. При видимости от 1 до 10 км при отсутствии осадков обычно наблюдается дымка, при ухудшении видимости до 1 км и менее - туман. В сухую погоду видимость может ухудшаться дымом, пылью или мглою.
Явления - указаны атмосферные явления, наблюдавшиеся в срок или в последний час перед сроком; фигурными скобками обозначены явления, наблюдавшиеся между сроками (за 1-3 часа до срока); квадратными скобками обозначены град или гололедные отложения с указанием их диаметра в мм.
Облачность - указаны через наклонную черту общая и нижняя облачность в баллах и высота нижней границы облаков в метрах; квадратными скобками обозначены формы облаков: Ci - перистые, Cs - перисто-слоистые, Cc - перисто-кучевые, Ac - высококучевые, As - высокослоистые, Sc - слоисто-кучевые, Ns - слоисто-дождевые, Cu - кучевые, Cb - кучево-дождевые. Подробнее классификацию облаков см. в Атласе облаков (PDF).
T - Температура воздуха - температура, измеренная на высоте 2 м над землей.
Td - Температура точки росы - температура, при понижении до которой содержащийся в воздухе водяной пар достигнет насыщения.
f - Относительная влажность воздуха - влажноcть воздуха, измеренная на высоте 2 м над землей.
Te - Эффективная температура - температура, которую ощущает одетый по сезону человек в тени. Характеристика душности погоды. При расчете учитывается влияние влажности воздуха и скорости ветра на теплоощущения человека.
Tes - Эффективная температура на солнце - температура, которую ощущает человек, с поправкой на солнечный нагрев. Характеристика знойности погоды. Зависит от высоты солнца над горизонтом, облачности и скорости ветра. Ночью, в пасмурную погоду, а также при ветре 12 м/с и более поправка равна нулю.
P - Атмосферное давление - приведенное к уровню моря атмосферное давление.
Po - Атмосферное давление - измеренное на уровне метеостанции атмосферное давление.
Tmin - Минимальная температура - минимум температуры воздуха на высоте 2 м над землей.
Tmax - Максимальная температура - максимум температуры воздуха на высоте 2 м над землей.
R - Количество осадков - Количество выпавших осадков за период времени, мм. При наведении курсора мыши на число - период времени, за который выпало указанное количество осадков.
R24 - Количество осадков - Количество выпавших осадков за 24 часа, мм.
S - Снежный покров - Высота снежного покрова, см. При наведении курсора мыши на число - состояние снежного покрова и степень покрытия местности в баллах.